GW2166 Weather Reports


Display with metric or nautical units.
time (UTC)temp
F
wind
direction
speed
MPH
gust
MPH
rain 1hr
in
rain 24hr
in
rain mn
in
humidity
%
barometer
mb
20260903023334 75 171 0.0 0.0 0.00 0.00 0.00 82 1012.1
20260903022834 75 171 0.0 0.0 0.00 0.00 0.00 82 1012.1
20260903022333 75 171 0.0 0.0 0.00 0.00 0.00 82 1012.1
20260903021834 75 171 0.0 0.0 0.00 0.00 0.00 81 1012.0
20260903021334 75 171 0.0 0.0 0.00 0.00 0.00 81 1012.0
20260903020834 76 171 0.0 0.0 0.00 0.00 0.00 80 1011.9
20260903020333 76 171 0.0 0.0 0.00 0.00 0.00 78 1011.8
20260903015333 76 171 0.0 0.0 0.00 0.00 0.00 77 1011.6
20260903014833 77 171 0.0 0.0 0.00 0.00 0.00 76 1011.7
20260903014332 77 171 0.0 0.0 0.00 0.00 0.00 75 1011.6
20260903013832 78 171 0.0 1.0 0.00 0.00 0.00 75 1011.5
20260903013333 78 171 0.0 1.0 0.00 0.00 0.00 73 1011.5
20260903012832 78 171 0.0 2.0 0.00 0.00 0.00 73 1011.4
20260903011832 80 171 1.0 2.0 0.00 0.00 0.00 71 1011.4
20260903010333 81 171 2.0 4.0 0.00 0.00 0.00 69 1011.3
20260903005833 82 171 1.0 6.0 0.00 0.00 0.00 67 1011.2
20260903005332 83 183 2.0 6.0 0.00 0.00 0.00 65 1011.3
20260903004831 83 185 2.0 4.0 0.00 0.00 0.00 64 1011.3
20260903004331 83 175 2.0 5.0 0.00 0.00 0.00 65 1011.3
20260903003831 83 152 3.0 5.0 0.00 0.00 0.00 65 1011.2
20260903003331 83 169 1.0 3.0 0.00 0.00 0.00 66 1011.2
20260903002331 86 169 0.0 4.0 0.00 0.00 0.00 62 1011.2
20260903001831 87 169 2.0 4.0 0.00 0.00 0.00 60 1011.2
20260903001331 88 176 1.0 4.0 0.00 0.00 0.00 58 1011.2
20260903000831 89 190 2.0 4.0 0.00 0.00 0.00 54 1011.2
20260903000332 90 193 2.0 4.0 0.00 0.00 0.00 54 1011.2
20260902235830 91 173 2.0 10.0 0.00 0.00 0.00 52 1011.2
20260902235330 93 185 3.0 10.0 0.00 0.00 0.00 49 1011.2
20260902234830 93 157 2.0 5.0 0.00 0.00 0.00 49 1011.2
20260902234330 94 164 3.0 13.0 0.00 0.00 0.00 46 1011.2
20260902233330 95 197 3.0 11.0 0.00 0.00 0.00 45 1011.3
20260902232829 95 169 4.0 9.0 0.00 0.00 0.00 43 1011.3
20260902232329 96 157 4.0 11.0 0.00 0.00 0.00 41 1011.3
20260902231829 96 212 5.0 11.0 0.00 0.00 0.00 42 1011.3
20260902231330 96 183 3.0 13.0 0.00 0.00 0.00 43 1011.3
20260902230829 96 199 5.0 15.0 0.00 0.00 0.00 43 1011.3
20260902230330 97 226 8.0 15.0 0.00 0.00 0.00 42 1011.3
20260902225829 97 171 6.0 13.0 0.00 0.00 0.00 42 1011.4
20260902224828 97 147 4.0 11.0 0.00 0.00 0.00 41 1011.4
20260902224328 97 180 7.0 11.0 0.00 0.00 0.00 42 1011.4
20260902223828 97 196 4.0 15.0 0.00 0.00 0.00 40 1011.3
20260902223328 97 157 7.0 15.0 0.00 0.00 0.00 40 1011.5
20260902222828 98 237 4.0 13.0 0.00 0.00 0.00 41 1011.4
20260902221828 98 173 6.0 12.0 0.00 0.00 0.00 40 1011.4
20260902220827 98 213 6.0 12.0 0.00 0.00 0.00 39 1011.4
20260902220327 99 221 7.0 13.0 0.00 0.00 0.00 40 1011.5
20260902215828 99 207 4.0 13.0 0.00 0.00 0.00 42 1011.4
20260902215327 99 199 7.0 13.0 0.00 0.00 0.00 40 1011.5
20260902214827 99 219 6.0 13.0 0.00 0.00 0.00 42 1011.6
20260902214327 99 185 6.0 13.0 0.00 0.00 0.00 39 1011.5
20260902213827 99 168 6.0 14.0 0.00 0.00 0.00 40 1011.6
20260902213326 99 202 7.0 16.0 0.00 0.00 0.00 40 1011.6
20260902212827 99 169 8.0 16.0 0.00 0.00 0.00 39 1011.7
20260902212327 99 168 5.0 14.0 0.00 0.00 0.00 42 1011.7
20260902211826 99 154 9.0 14.0 0.00 0.00 0.00 39 1011.8
20260902211326 99 179 6.0 16.0 0.00 0.00 0.00 40 1011.9
20260902210326 100 209 8.0 15.0 0.00 0.00 0.00 38 1012.1
20260902205326 99 254 5.0 15.0 0.00 0.00 0.00 40 1012.2
20260902204826 100 188 8.0 15.0 0.00 0.00 0.00 39 1012.2
20260902203826 100 248 7.0 16.0 0.00 0.00 0.00 40 1012.3
20260902203326 100 138 6.0 16.0 0.00 0.00 0.00 41 1012.4
20260902202825 100 182 7.0 14.0 0.00 0.00 0.00 40 1012.4
20260902202325 100 116 7.0 16.0 0.00 0.00 0.00 41 1012.5
20260902201825 100 216 8.0 16.0 0.00 0.00 0.00 41 1012.5
20260902201325 100 231 4.0 18.0 0.00 0.00 0.00 45 1012.6
20260902200824 99 159 9.0 18.0 0.00 0.00 0.00 42 1012.8
20260902200325 99 190 6.0 16.0 0.00 0.00 0.00 41 1012.7
20260902195324 99 185 6.0 16.0 0.00 0.00 0.00 42 1012.8
20260902194824 99 178 9.0 16.0 0.00 0.00 0.00 41 1013.0
20260902194324 99 209 6.0 17.0 0.00 0.00 0.00 42 1013.0
20260902193824 99 220 8.0 17.0 0.00 0.00 0.00 43 1013.1
20260902193323 99 145 7.0 17.0 0.00 0.00 0.00 41 1013.1
20260902192823 99 193 9.0 15.0 0.00 0.00 0.00 42 1013.2
20260902192324 99 195 8.0 15.0 0.00 0.00 0.00 42 1013.3
20260902191824 100 213 7.0 14.0 0.00 0.00 0.00 43 1013.3
20260902191323 98 179 6.0 14.0 0.00 0.00 0.00 44 1013.3
20260902190824 99 180 7.0 14.0 0.00 0.00 0.00 43 1013.5
20260902190323 100 228 6.0 14.0 0.00 0.00 0.00 43 1013.5
20260902185823 98 220 7.0 15.0 0.00 0.00 0.00 43 1013.5
20260902184323 98 200 8.0 18.0 0.00 0.00 0.00 44 1013.8
20260902183823 99 165 9.0 17.0 0.00 0.00 0.00 43 1013.9
20260902183322 98 117 7.0 15.0 0.00 0.00 0.00 45 1013.7
20260902182822 98 212 6.0 15.0 0.00 0.00 0.00 46 1013.9
20260902182323 98 172 9.0 16.0 0.00 0.00 0.00 45 1014.0
20260902181822 98 197 7.0 16.0 0.00 0.00 0.00 46 1014.1
20260902181322 98 182 7.0 15.0 0.00 0.00 0.00 47 1014.1
20260902180822 98 266 7.0 18.0 0.00 0.00 0.00 49 1014.1
20260902180322 97 178 9.0 19.0 0.00 0.00 0.00 47 1014.3
20260902175821 97 195 7.0 19.0 0.00 0.00 0.00 47 1014.2
20260902175321 97 131 6.0 16.0 0.00 0.00 0.00 51 1014.3
20260902174821 96 171 8.0 14.0 0.00 0.00 0.00 48 1014.5
20260902174321 97 206 7.0 13.0 0.00 0.00 0.00 48 1014.5
20260902173321 96 305 5.0 15.0 0.00 0.00 0.00 49 1014.6
20260902172321 96 220 6.0 21.0 0.00 0.00 0.00 50 1014.8
20260902171820 96 188 9.0 17.0 0.00 0.00 0.00 49 1014.7
20260902171320 96 190 6.0 14.0 0.00 0.00 0.00 52 1014.7
20260902170820 95 200 7.0 15.0 0.00 0.00 0.00 51 1014.9
20260902170320 95 127 8.0 17.0 0.00 0.00 0.00 53 1015.0
20260902165320 94 193 8.0 16.0 0.00 0.00 0.00 52 1014.9
20260902164820 94 200 7.0 16.0 0.00 0.00 0.00 54 1015.0
20260902163819 94 157 9.0 16.0 0.00 0.00 0.00 53 1015.1
20260902163319 94 209 7.0 16.0 0.00 0.00 0.00 55 1015.1
20260902162819 93 204 6.0 16.0 0.00 0.00 0.00 55 1015.2
20260902162320 93 173 8.0 18.0 0.00 0.00 0.00 56 1015.3
20260902161819 92 216 9.0 18.0 0.00 0.00 0.00 56 1015.4
20260902161319 92 210 7.0 15.0 0.00 0.00 0.00 55 1015.3
20260902160819 92 228 7.0 16.0 0.00 0.00 0.00 56 1015.4
20260902160319 92 196 10.0 16.0 0.00 0.00 0.00 56 1015.5
20260902155819 92 182 9.0 15.0 0.00 0.00 0.00 56 1015.4
20260902155319 91 168 6.0 16.0 0.00 0.00 0.00 60 1015.4
20260902154819 90 199 10.0 16.0 0.00 0.00 0.00 58 1015.3
20260902154319 90 216 6.0 16.0 0.00 0.00 0.00 60 1015.3
20260902153818 90 195 6.0 16.0 0.00 0.00 0.00 59 1015.4
20260902153318 89 203 6.0 14.0 0.00 0.00 0.00 61 1015.4
20260902152818 89 165 7.0 13.0 0.00 0.00 0.00 62 1015.4
20260902152318 89 207 6.0 12.0 0.00 0.00 0.00 64 1015.4
20260902151318 88 252 6.0 14.0 0.00 0.00 0.00 64 1015.4
20260902150818 87 209 7.0 14.0 0.00 0.00 0.00 64 1015.4
20260902150318 87 203 4.0 14.0 0.00 0.00 0.00 66 1015.3
20260902145818 87 200 6.0 13.0 0.00 0.00 0.00 66 1015.3
20260902144817 85 199 5.0 16.0 0.00 0.00 0.00 67 1015.3
20260902144318 85 250 7.0 16.0 0.00 0.00 0.00 67 1015.4
20260902143817 85 219 5.0 14.0 0.00 0.00 0.00 67 1015.4
20260902143317 84 203 4.0 14.0 0.00 0.00 0.00 68 1015.3
20260902142317 84 202 6.0 12.0 0.00 0.00 0.00 69 1015.4
20260902141816 83 240 4.0 13.0 0.00 0.00 0.00 70 1015.4
20260902141316 83 203 6.0 13.0 0.00 0.00 0.00 69 1015.5
20260902140816 82 189 6.0 11.0 0.00 0.00 0.00 70 1015.5
20260902140316 82 185 4.0 10.0 0.00 0.00 0.00 71 1015.4
20260902135816 82 230 5.0 9.0 0.00 0.00 0.00 73 1015.5
20260902135316 81 175 2.0 7.0 0.00 0.00 0.00 74 1015.5
20260902134816 80 213 4.0 7.0 0.00 0.00 0.00 74 1015.5
20260902134316 80 175 4.0 7.0 0.00 0.00 0.00 76 1015.5
20260902133816 79 185 3.0 9.0 0.00 0.00 0.00 77 1015.4
20260902132815 78 159 2.0 6.0 0.00 0.00 0.00 78 1015.3
20260902132316 77 183 3.0 6.0 0.00 0.00 0.00 80 1015.4
20260902131815 77 161 2.0 6.0 0.00 0.00 0.00 82 1015.3
20260902131315 76 157 3.0 6.0 0.00 0.00 0.00 81 1015.2
20260902130815 75 164 3.0 6.0 0.00 0.00 0.00 83 1015.2
20260902125814 74 185 3.0 5.0 0.00 0.00 0.00 86 1015.1
20260902125314 72 173 3.0 5.0 0.00 0.00 0.00 89 1015.1
20260902124815 70 162 2.0 5.0 0.00 0.00 0.00 92 1015.1
20260902124314 69 165 2.0 4.0 0.00 0.00 0.00 94 1015.1
20260902123814 68 165 1.0 3.0 0.00 0.00 0.00 95 1015.0
20260902122313 66 123 1.0 2.0 0.00 0.00 0.00 95 1015.0
20260902121814 66 123 0.0 3.0 0.00 0.00 0.00 95 1014.9
20260902121314 66 123 1.0 3.0 0.00 0.00 0.00 95 1014.9
20260902120814 66 123 1.0 2.0 0.00 0.00 0.00 95 1014.9
20260902120313 65 123 0.0 1.0 0.00 0.00 0.00 95 1014.9
20260902115813 65 123 0.0 1.0 0.00 0.00 0.00 95 1014.8
20260902115313 65 123 0.0 1.0 0.00 0.00 0.00 95 1014.8
20260902114814 65 123 0.0 1.0 0.00 0.00 0.00 95 1014.7
20260902114313 65 123 0.0 0.0 0.00 0.00 0.00 95 1014.7
20260902113813 65 123 0.0 0.0 0.00 0.00 0.00 95 1014.7
20260902113313 65 123 0.0 0.0 0.00 0.00 0.00 94 1014.7
20260902112813 65 123 0.0 0.0 0.00 0.00 0.00 95 1014.6
20260902112313 65 123 0.0 0.0 0.00 0.00 0.00 95 1014.6
20260902111813 65 123 0.0 0.0 0.00 0.00 0.00 95 1014.6
20260902111313 65 123 0.0 0.0 0.00 0.00 0.00 95 1014.6
20260902110813 65 123 0.0 0.0 0.00 0.00 0.00 95 1014.5
20260902110312 65 123 0.0 1.0 0.00 0.00 0.00 95 1014.5
20260902105811 65 123 0.0 1.0 0.00 0.00 0.00 95 1014.3
20260902105312 65 123 0.0 0.0 0.00 0.00 0.00 95 1014.3
20260902104812 65 123 0.0 0.0 0.00 0.00 0.00 95 1014.3
20260902103812 65 123 0.0 0.0 0.00 0.00 0.00 95 1014.5
20260902103311 65 123 0.0 0.0 0.00 0.00 0.00 95 1014.3
20260902102811 65 123 0.0 0.0 0.00 0.00 0.00 95 1014.2
20260902102312 65 123 0.0 0.0 0.00 0.00 0.00 95 1014.1
20260902101811 65 123 0.0 0.0 0.00 0.00 0.00 95 1014.1
20260902101311 65 123 0.0 0.0 0.00 0.00 0.00 95 1014.2
20260902100310 65 123 0.0 0.0 0.00 0.00 0.00 95 1014.2
20260902095311 65 123 0.0 0.0 0.00 0.00 0.00 94 1014.1
20260902094810 65 123 0.0 0.0 0.00 0.00 0.00 94 1014.1
20260902094310 65 123 0.0 0.0 0.00 0.00 0.00 94 1014.1
20260902093810 65 123 0.0 0.0 0.00 0.00 0.00 94 1014.1
20260902092811 66 123 0.0 0.0 0.00 0.00 0.00 93 1014.1
20260902092309 66 123 0.0 0.0 0.00 0.00 0.00 93 1014.0
20260902091310 66 123 0.0 1.0 0.00 0.00 0.00 93 1013.9
20260902090809 66 123 0.0 1.0 0.00 0.00 0.00 93 1013.9
20260902090309 67 123 0.0 1.0 0.00 0.00 0.00 93 1013.9
20260902085809 67 123 0.0 0.0 0.00 0.00 0.00 93 1013.8
20260902085309 67 123 0.0 0.0 0.00 0.00 0.00 93 1013.9
20260902084809 67 123 0.0 0.0 0.00 0.00 0.00 93 1013.9
20260902083308 67 123 1.0 5.0 0.00 0.00 0.00 93 1013.8
20260902082808 67 123 3.0 5.0 0.00 0.00 0.00 93 1013.7
20260902081808 67 172 0.0 1.0 0.00 0.00 0.00 93 1013.5
20260902081308 67 172 0.0 0.0 0.00 0.00 0.00 93 1013.5
20260902080808 67 172 0.0 0.0 0.00 0.00 0.00 93 1013.5
20260902080308 67 172 0.0 0.0 0.00 0.00 0.00 93 1013.4
20260902075808 67 172 0.0 0.0 0.00 0.00 0.00 93 1013.4
20260902075308 67 172 0.0 0.0 0.00 0.00 0.00 93 1013.5
20260902074807 67 172 0.0 0.0 0.00 0.00 0.00 93 1013.4
20260902074307 67 172 0.0 0.0 0.00 0.00 0.00 93 1013.4
20260902073807 67 172 0.0 0.0 0.00 0.00 0.00 93 1013.4
20260902072309 67 172 0.0 0.0 0.00 0.00 0.00 93 1013.5
20260902071306 67 172 0.0 0.0 0.00 0.00 0.00 93 1013.5
20260902070306 67 172 0.0 0.0 0.00 0.00 0.00 93 1013.5
20260902065807 67 172 0.0 0.0 0.00 0.00 0.00 93 1013.5
20260902065307 67 172 0.0 0.0 0.00 0.00 0.00 92 1013.6
20260902064806 68 172 0.0 0.0 0.00 0.00 0.00 92 1013.5
20260902064306 68 172 0.0 0.0 0.00 0.00 0.00 92 1013.7
20260902063806 68 172 0.0 0.0 0.00 0.00 0.00 91 1013.7
20260902063305 68 172 0.0 0.0 0.00 0.00 0.00 91 1013.7
20260902062806 68 172 0.0 0.0 0.00 0.00 0.00 91 1013.7
20260902061805 69 172 0.0 1.0 0.00 0.00 0.00 90 1013.7
20260902060805 69 172 0.0 0.0 0.00 0.00 0.00 90 1013.7
20260902055805 69 172 0.0 1.0 0.00 0.00 0.00 89 1013.6
20260902055306 69 172 0.0 0.0 0.00 0.00 0.00 89 1013.5
20260902054803 69 172 0.0 0.0 0.00 0.00 0.00 89 1013.5
20260902053804 69 172 0.0 1.0 0.00 0.00 0.00 89 1013.5
20260902053305 69 172 0.0 1.0 0.00 0.00 0.00 89 1013.4
20260902052306 70 172 0.0 3.0 0.00 0.00 0.00 89 1013.4
20260902051804 69 172 1.0 3.0 0.00 0.00 0.00 89 1013.5
20260902051304 69 172 2.0 4.0 0.00 0.00 0.00 89 1013.5
20260902050803 69 172 2.0 4.0 0.00 0.00 0.00 89 1013.6
20260902050303 69 172 2.0 3.0 0.00 0.00 0.00 89 1013.5
20260902045803 69 172 1.0 2.0 0.00 0.00 0.00 90 1013.6
20260902045306 70 172 1.0 2.0 0.00 0.00 0.00 89 1013.8
20260902044803 70 172 0.0 1.0 0.00 0.00 0.00 89 1013.7
20260902043802 70 172 0.0 1.0 0.00 0.00 0.00 89 1013.6
20260902043302 70 172 0.0 1.0 0.00 0.00 0.00 89 1013.7
20260902042802 70 172 1.0 1.0 0.00 0.00 0.00 88 1013.7
20260902041802 71 172 0.0 1.0 0.00 0.00 0.00 88 1013.7
20260902041302 71 172 0.0 0.0 0.00 0.00 0.00 88 1013.7
20260902040802 71 172 0.0 1.0 0.00 0.00 0.00 87 1013.6
20260902040302 71 172 0.0 2.0 0.00 0.00 0.00 88 1013.6
20260902035802 71 172 0.0 2.0 0.00 0.00 0.00 88 1013.6
20260902034802 71 172 1.0 2.0 0.00 0.00 0.00 88 1013.6
20260902034302 71 172 1.0 2.0 0.00 0.00 0.00 88 1013.8
20260902033801 71 172 1.0 2.0 0.00 0.00 0.00 88 1013.7
20260902033301 71 172 0.0 1.0 0.00 0.00 0.00 88 1013.7
20260902032801 71 172 0.0 0.0 0.00 0.00 0.00 88 1013.6
20260902032301 71 172 0.0 0.0 0.00 0.00 0.00 87 1013.7
20260902031801 71 172 0.0 0.0 0.00 0.00 0.00 87 1013.6
20260902031301 71 172 0.0 0.0 0.00 0.00 0.00 87 1013.5
20260902030259 71 172 0.0 2.0 0.00 0.00 0.00 87 1013.4
20260902025801 72 172 0.0 2.0 0.00 0.00 0.00 87 1013.4
20260902025301 72 172 1.0 2.0 0.00 0.00 0.00 86 1013.3